Theta_e
345 346 344 343 341 346 345 346 347 345 345 343 342 342 344 343 338 346 347 344 336 335 337 339 340 340 336 331 331 339 335 335 337 336 331 335 332 332 337 341 338 337 335
345 347 343 341 341 345 346 345 346 346 345 343 342 343 343 344 344 346 347 346 342 339 337 338 340 339 337 329 327 336 335 339 338 337 331 337 330 334 340 339 338 343 340
347 344 344 340 338 347 346 346 345 345 343 342 345 342 344 344 343 343 345 347 346 344 345 343 342 338 332 327 323 334 337 340 341 337 329 338 332 338 339 338 338 344 339
347 344 339 341 339 342 346 344 345 345 342 344 343 345 343 343 344 345 341 338 345 348 347 349 345 339 331 328 323 335 338 333 342 338 327 333 333 339 339 339 338 340 339
343 340 339 338 345 342 345 346 347 345 346 346 344 345 347 344 345 346 346 346 343 348 347 350 349 345 335 328 326 325 333 330 334 328 328 330 336 339 340 338 338 338 335
347 345 343 343 343 346 347 346 346 346 343 346 349 344 346 348 347 347 348 348 345 346 348 346 349 345 332 336 329 328 328 328 328 328 330 331 338 337 338 337 336 335 334
348 346 343 347 342 345 347 347 349 347 338 347 348 346 347 345 348 348 348 346 347 346 347 345 345 346 349 346 342 330 330 330 331 331 333 341 339 334 335 334 334 333 332
346 348 343 348 348 343 343 346 346 343 342 342 346 346 344 335 343 345 349 348 348 348 348 348 347 346 349 348 346 338 331 331 332 332 336 338 337 333 334 334 334 334 334
344 346 347 345 350 348 344 343 344 346 346 341 340 339 345 342 334 343 347 348 348 348 350 350 348 348 347 349 350 349 346 341 342 338 335 334 333 331 332 332 332 332 333
347 348 346 341 346 348 343 344 347 348 348 342 342 342 342 348 347 348 348 347 345 348 347 349 350 350 350 350 350 349 347 348 346 341 340 340 338 334 332 332 333 334 334
350 350 349 347 346 342 348 343 350 350 347 344 342 340 341 345 347 348 346 346 346 348 349 349 349 349 350 351 351 351 349 346 343 342 341 340 339 339 338 337 337 336 337
351 349 347 348 347 346 347 348 346 341 345 339 341 337 338 337 347 338 344 340 339 348 348 347 348 349 349 349 351 352 352 352 349 341 340 341 343 344 345 345 344 342 341
351 349 349 350 348 345 343 344 343 344 343 340 342 341 340 340 342 345 345 340 342 346 348 348 348 349 350 350 350 347 348 346 341 342 343 347 347 347 347 345 344 344 345
350 352 347 335 348 346 345 344 344 347 345 341 343 343 345 343 342 350 352 344 340 342 347 349 348 349 351 350 351 352 350 346 345 344 341 342 344 344 341 343 343 342 341
353 351 350 346 349 349 348 345 348 347 347 350 348 346 345 343 353 348 349 349 351 348 345 344 348 349 349 350 350 349 347 343 344 346 345 341 338 339 342 345 345 344 344
343 344 340 346 350 350 351 348 347 349 345 345 349 348 349 345 347 350 344 346 347 348 338 339 343 346 347 348 349 349 352 349 348 348 346 344 343 343 344 345 346 347 346
350 349 348 347 348 346 345 347 349 348 349 344 345 349 349 348 346 350 347 341 338 348 349 348 343 344 347 348 347 344 348 349 348 349 347 345 345 345 346 346 346 346 346
341 338 343 346 345 345 348 351 349 350 349 348 349 348 347 347 347 347 348 346 340 341 347 348 349 348 348 348 348 344 341 345 346 350 348 349 350 348 347 345 343 341 341
340 340 335 336 342 345 344 344 350 350 350 348 349 349 346 346 346 345 344 346 343 342 339 345 346 347 348 347 346 346 349 350 343 343 345 347 348 346 345 345 344 342 339
341 341 340 340 336 330 334 336 340 346 348 351 349 349 350 348 345 344 345 345 348 347 348 347 347 346 348 349 349 350 349 347 345 348 349 345 344 344 347 347 346 346 345
337 335 333 336 339 339 335 339 341 342 344 349 350 349 348 348 348 347 346 343 345 345 345 347 349 349 346 345 348 351 349 347 346 346 349 350 347 345 345 346 347 349 346
330 331 331 334 336 337 337 338 339 340 340 337 331 346 349 345 345 346 346 346 345 344 347 346 345 347 349 348 344 345 347 348 349 347 346 347 347 349 350 348 347 348 349
332 331 332 332 331 330 329 329 333 338 339 335 334 333 347 348 346 345 347 348 348 347 347 346 346 346 346 349 350 347 345 346 350 349 348 350 349 349 349 349 349 348 347
334 334 334 334 332 332 331 329 328 331 336 336 335 332 337 346 347 346 344 344 343 342 349 348 348 345 345 345 347 348 346 345 348 347 348 347 344 344 348 348 348 348 347
332 333 333 333 335 334 334 331 329 328 330 332 336 337 334 339 344 342 342 343 345 347 349 348 347 346 345 344 344 344 345 346 347 346 344 343 342 339 343 348 348 347 347
328 329 330 332 333 335 334 336 333 330 330 333 328 337 337 334 332 338 341 341 343 343 344 345 340 336 343 346 346 345 345 345 345 344 343 347 345 346 348 347 348 348 349
Wind_Speed
2 0 5 6 6 8 3 5 3 7 5 7 3 5 5 8 6 8 11 10 7 8 8 6 7 8 9 9 9 10 9 8 7 6 7 7 7 6 6 6 6 5 6
2 4 9 8 6 1 4 2 5 7 10 9 10 10 9 11 7 8 9 10 5 5 6 7 8 9 10 10 10 11 10 9 8 7 8 8 7 8 7 6 6 6 7
5 12 9 8 8 3 4 6 4 9 6 9 10 9 8 10 11 10 15 12 11 10 8 5 7 7 9 10 10 12 11 10 9 10 9 9 9 8 8 7 8 6 8
9 12 10 8 6 10 9 7 4 6 5 9 10 10 9 9 10 12 12 12 13 11 10 10 6 5 7 10 10 11 11 12 11 11 11 11 10 9 8 8 8 8 8
12 12 10 11 6 7 12 9 12 11 10 12 10 11 12 11 10 12 9 10 13 13 12 9 11 6 6 9 9 10 11 11 12 12 12 11 10 10 8 9 8 8 8
11 13 11 8 5 6 10 12 13 13 15 11 9 5 11 9 13 16 17 14 10 10 12 12 10 7 5 3 6 9 11 12 12 12 12 11 10 10 9 9 8 8 8
11 14 11 9 7 10 14 13 5 11 10 10 10 7 16 16 15 16 15 17 18 16 15 13 12 9 8 5 4 6 9 10 10 11 11 11 10 9 9 9 8 8 8
16 15 13 12 12 10 12 13 11 10 7 9 6 7 9 12 15 19 17 18 15 16 14 21 14 10 12 10 6 4 7 9 9 10 11 11 10 9 9 9 8 9 8
12 13 18 15 15 14 12 10 9 9 7 9 9 9 3 9 14 13 17 19 18 19 17 19 19 16 16 15 9 10 9 8 8 9 9 9 8 8 8 8 8 8 8
11 16 16 15 16 16 11 10 6 8 10 11 9 12 14 15 15 4 6 14 17 18 19 14 16 16 18 16 16 11 8 9 8 9 9 9 8 8 8 7 7 7 7
15 16 15 13 18 14 13 9 11 12 14 13 12 15 14 16 7 17 14 11 18 17 18 18 19 18 15 16 14 15 8 7 11 11 11 10 9 9 8 8 9 9 8
15 10 13 13 13 17 17 16 11 18 19 17 17 13 9 15 8 10 5 13 23 17 16 17 15 18 15 15 10 15 15 14 11 12 12 11 11 10 10 10 10 11 10
14 19 17 9 13 12 15 19 16 18 18 18 18 18 14 15 11 17 10 3 1 18 21 19 16 16 14 13 12 11 12 13 10 10 12 12 12 11 11 11 11 11 12
13 12 15 6 10 11 13 17 21 20 18 17 17 19 17 14 12 11 17 2 7 17 9 4 19 15 16 14 14 16 12 10 9 9 10 12 14 14 12 11 10 10 10
13 13 14 9 9 12 15 17 18 20 21 22 21 19 18 17 12 17 15 9 8 11 9 8 10 17 19 18 17 15 13 11 12 13 13 12 12 14 13 13 12 12 12
14 16 17 14 13 14 16 18 20 20 19 24 24 21 22 19 19 21 20 16 8 11 12 11 8 13 12 12 17 13 10 12 15 19 19 18 16 15 15 16 16 16 16
13 14 14 14 14 16 20 21 22 22 23 25 27 27 26 27 23 23 24 20 17 14 15 13 19 12 14 16 12 10 12 11 12 10 13 15 18 18 19 19 19 20 20
13 13 11 14 17 18 20 20 23 25 26 28 30 31 32 26 28 27 27 26 21 21 21 21 15 17 11 10 13 14 15 18 15 13 13 15 18 16 16 17 19 22 23
17 17 17 16 16 19 19 19 23 27 29 29 31 32 32 35 34 30 27 26 27 23 25 27 25 20 18 18 18 19 16 12 14 18 18 16 15 18 18 17 18 20 23
19 19 19 18 21 24 23 22 22 24 27 30 31 33 34 30 31 33 33 30 30 25 23 27 29 29 28 24 21 23 22 19 18 15 16 18 19 21 21 20 20 19 20
20 22 24 24 23 22 23 19 23 26 27 27 30 31 32 31 30 31 33 33 34 33 29 32 29 30 31 32 29 25 30 26 23 18 16 20 17 21 21 19 20 20 14
23 24 24 26 25 24 24 25 26 29 31 31 29 29 29 25 27 29 32 33 36 34 35 35 33 31 28 27 22 31 24 22 20 18 22 24 22 21 16 16 19 16 17
25 25 25 25 26 27 27 27 28 29 30 32 30 28 28 30 30 29 31 34 35 34 35 36 37 37 35 23 24 27 29 27 20 19 17 16 17 15 20 17 15 20 20
27 27 28 28 29 28 28 27 26 28 30 31 32 29 26 28 30 30 29 31 36 35 37 37 39 39 38 37 34 24 31 32 30 29 25 27 28 27 24 22 19 18 19
30 31 30 30 30 31 29 30 29 29 31 32 29 30 28 28 31 27 30 29 29 32 27 30 31 31 36 42 40 40 37 34 32 36 35 35 34 26 26 23 22 22 22
31 30 31 31 31 32 30 26 28 34 36 34 31 29 30 26 26 21 21 26 31 33 31 31 30 31 33 34 37 44 42 40 37 41 37 28 26 23 25 26 25 23 19
Wind_Direction
310 276 212 277 242 252 191 185 220 213 224 247 212 226 263 261 214 208 205 192 213 224 222 242 254 262 256 250 241 239 248 243 249 256 262 258 261 258 257 266 274 273 277
334 222 266 254 248 0 182 199 229 205 208 193 203 204 227 225 248 262 206 204 231 272 265 272 272 270 259 248 241 236 243 237 250 261 261 259 263 258 263 268 268 268 284
229 254 265 283 238 269 285 250 241 228 192 215 209 243 215 225 205 229 209 245 255 264 267 278 263 262 256 247 240 233 238 242 244 256 262 254 253 257 263 269 267 253 270
238 251 254 250 243 228 235 211 247 237 224 246 234 225 257 230 246 224 242 216 255 275 252 248 272 250 259 247 237 225 239 233 243 253 259 251 249 254 261 266 263 255 255
239 236 248 246 261 218 198 235 251 234 238 254 263 251 271 269 250 250 254 246 227 233 260 223 271 275 269 251 240 227 230 233 240 249 248 246 248 254 254 255 255 251 254
250 253 261 252 239 193 196 229 214 227 242 246 284 296 237 247 258 251 250 248 241 235 242 260 253 291 240 256 249 237 233 235 237 240 241 239 242 255 257 253 249 249 251
229 249 261 261 245 212 206 212 217 240 227 221 273 270 268 230 242 230 242 238 238 235 240 243 245 262 247 267 268 241 235 233 236 237 232 235 245 253 253 251 248 247 251
225 229 242 240 255 234 220 220 225 241 235 236 264 297 331 269 261 226 214 240 239 240 226 238 234 242 245 255 270 250 236 236 237 234 233 236 242 247 247 248 248 247 248
248 223 233 227 237 249 236 236 241 234 228 241 249 263 180 210 250 248 218 222 230 228 223 229 228 231 236 238 242 250 249 236 240 239 239 238 242 247 248 249 251 252 252
231 235 240 234 227 242 244 232 248 238 244 243 248 249 251 257 244 328 207 202 219 226 225 218 233 238 234 238 230 241 230 232 245 240 238 239 235 238 242 244 245 247 253
249 240 234 228 226 235 235 247 234 240 245 250 247 251 260 259 302 282 277 220 203 210 222 223 230 240 238 240 217 238 257 259 252 242 237 235 234 234 238 244 248 248 250
284 254 237 238 224 228 226 232 244 253 256 257 251 248 262 257 275 206 264 297 239 224 223 216 221 228 229 238 226 233 242 250 264 243 234 231 231 236 242 248 255 257 258
299 327 223 243 262 233 232 237 246 245 254 254 248 241 252 265 258 277 226 6 181 272 237 205 210 211 216 220 221 222 241 241 238 235 233 233 235 237 246 251 256 261 265
297 326 320 295 222 253 247 244 251 246 244 257 247 242 246 258 259 250 280 143 45 294 303 83 191 189 209 212 213 231 244 241 239 239 238 240 241 242 240 247 258 268 272
310 290 303 325 263 273 275 255 246 245 228 240 246 244 250 246 250 254 236 259 229 237 272 294 233 226 208 223 216 228 245 253 256 254 248 244 240 237 242 255 264 270 277
306 303 309 289 268 274 270 261 252 247 243 237 244 246 247 250 230 249 249 229 242 261 256 234 231 250 238 210 216 228 226 250 257 263 261 250 247 251 258 263 266 271 277
325 331 326 313 297 278 267 270 264 259 251 242 238 241 251 250 246 235 256 249 237 237 254 248 244 252 208 202 219 225 227 248 276 280 266 254 247 254 262 265 266 272 275
292 304 306 306 308 300 286 277 273 263 259 254 248 243 244 251 249 247 240 249 235 224 245 253 249 237 222 246 252 256 266 235 254 258 279 248 242 249 263 271 274 278 274
291 291 294 290 284 290 294 290 281 272 266 258 255 253 252 246 249 248 250 252 253 241 237 244 248 242 258 263 269 271 265 256 276 267 258 261 258 271 273 275 289 286 274
279 285 288 286 281 288 284 283 293 293 278 270 263 255 253 250 251 252 253 251 253 251 238 244 246 245 244 243 252 263 251 260 261 268 263 268 272 269 271 277 284 285 278
277 280 284 283 285 286 291 285 286 292 289 285 275 265 258 258 259 259 257 256 252 252 246 241 249 254 256 254 242 260 248 254 259 250 244 259 262 276 271 280 278 275 275
289 286 283 281 278 279 273 273 274 284 286 285 288 272 265 260 263 260 259 262 260 258 254 253 250 247 251 257 266 243 255 252 236 252 257 249 247 260 269 264 280 276 267
296 292 287 284 284 278 278 278 278 278 286 288 287 285 278 265 261 265 263 259 256 259 259 256 254 249 247 247 254 249 251 263 263 232 249 257 271 264 259 264 263 277 268
288 286 282 280 281 283 284 281 282 283 280 283 286 282 274 272 263 258 270 269 268 264 255 254 254 256 254 249 249 254 250 250 256 252 251 256 257 260 260 267 268 266 270
290 287 283 278 273 278 279 283 284 285 285 280 280 282 277 268 269 273 264 262 267 265 263 258 258 262 262 260 255 257 257 257 257 257 255 264 266 262 253 261 265 266 266
295 291 284 281 277 277 276 275 278 284 284 283 276 273 279 280 273 268 269 259 262 264 266 262 266 265 262 263 260 255 256 256 256 259 255 252 254 251 252 255 264 250 253